Time,TemperatureF,DewpointF,PressureIn,WindDirection,WindDirectionDegrees,WindSpeedMPH,WindSpeedGustMPH,Humidity,HourlyPrecipIn,Conditions,Clouds,dailyrainin,SoftwareType,DateUTC
2013-09-07 00:03:00,64.9,61.9,30.23,ENE,62,0.0,0.0,90,0.00,,,0.00,WeatherCatV1.21B27,2013-09-07 04:03:00,
2013-09-07 00:08:00,64.7,61.7,30.23,ENE,62,0.0,0.0,90,0.00,,,0.00,WeatherCatV1.21B27,2013-09-07 04:08:00,
2013-09-07 00:13:00,64.5,61.8,30.23,ENE,62,0.0,0.0,91,0.00,,,0.00,WeatherCatV1.21B27,2013-09-07 04:13:00,
2013-09-07 00:18:00,64.3,61.6,30.23,ENE,62,0.0,0.0,91,0.00,,,0.00,WeatherCatV1.21B27,2013-09-07 04:18:00,
2013-09-07 00:23:00,64.1,61.4,30.23,ENE,62,0.0,0.0,91,0.00,,,0.00,WeatherCatV1.21B27,2013-09-07 04:23:00,
2013-09-07 00:28:00,64.0,61.6,30.23,ENE,62,0.0,0.0,92,0.00,,,0.00,WeatherCatV1.21B27,2013-09-07 04:28:00,
2013-09-07 00:33:00,63.9,61.5,30.23,ENE,62,0.0,0.0,92,0.00,,,0.00,WeatherCatV1.21B27,2013-09-07 04:33:00,
2013-09-07 00:38:00,63.8,61.4,30.23,ENE,62,0.0,0.0,92,0.00,,,0.00,WeatherCatV1.21B27,2013-09-07 04:38:00,
2013-09-07 00:43:00,63.6,61.2,30.22,ENE,62,0.0,0.0,92,0.00,,,0.00,WeatherCatV1.21B27,2013-09-07 04:43:00,
2013-09-07 00:48:00,63.4,61.0,30.22,ENE,62,0.0,0.0,92,0.00,,,0.00,WeatherCatV1.21B27,2013-09-07 04:48:00,
2013-09-07 00:53:00,63.3,61.2,30.22,ENE,62,0.0,0.0,93,0.00,,,0.00,WeatherCatV1.21B27,2013-09-07 04:53:00,
2013-09-07 00:58:00,63.2,61.1,30.22,ENE,62,0.0,0.0,93,0.00,,,0.00,WeatherCatV1.21B27,2013-09-07 04:58:00,
2013-09-07 01:03:00,63.2,61.1,30.23,ENE,62,0.0,0.0,93,0.00,,,0.00,WeatherCatV1.21B27,2013-09-07 05:03:00,
2013-09-07 01:08:00,63.0,60.9,30.23,ENE,62,0.0,0.0,93,0.00,,,0.00,WeatherCatV1.21B27,2013-09-07 05:08:00,
2013-09-07 01:13:00,62.9,60.8,30.22,ENE,62,0.0,0.0,93,0.00,,,0.00,WeatherCatV1.21B27,2013-09-07 05:13:00,
2013-09-07 01:18:00,62.7,60.6,30.22,ENE,62,0.0,0.0,93,0.00,,,0.00,WeatherCatV1.21B27,2013-09-07 05:18:00,
2013-09-07 01:23:00,62.6,60.5,30.23,ENE,62,0.0,0.0,93,0.00,,,0.00,WeatherCatV1.21B27,2013-09-07 05:23:00,
2013-09-07 01:28:00,62.5,60.8,30.23,ENE,62,0.0,0.0,94,0.00,,,0.00,WeatherCatV1.21B27,2013-09-07 05:28:00,
2013-09-07 01:33:00,62.4,60.7,30.22,ENE,62,0.0,0.0,94,0.00,,,0.00,WeatherCatV1.21B27,2013-09-07 05:33:00,
2013-09-07 01:38:00,62.3,60.5,30.23,ENE,62,0.0,0.0,94,0.00,,,0.00,WeatherCatV1.21B27,2013-09-07 05:38:00,
2013-09-07 01:43:00,62.2,60.5,30.23,ENE,62,0.0,0.0,94,0.00,,,0.00,WeatherCatV1.21B27,2013-09-07 05:43:00,
2013-09-07 01:48:00,62.1,60.7,30.22,ENE,62,0.0,0.0,95,0.00,,,0.00,WeatherCatV1.21B27,2013-09-07 05:48:00,
2013-09-07 01:53:00,62.1,60.7,30.23,ENE,62,0.0,0.0,95,0.00,,,0.00,WeatherCatV1.21B27,2013-09-07 05:53:00,
2013-09-07 01:58:00,62.1,60.7,30.23,ENE,62,0.0,0.0,95,0.00,,,0.00,WeatherCatV1.21B27,2013-09-07 05:58:00,
2013-09-07 02:03:00,62.1,60.7,30.23,ENE,62,0.0,0.0,95,0.00,,,0.00,WeatherCatV1.21B27,2013-09-07 06:03:00,
2013-09-07 02:08:00,62.1,60.7,30.23,ENE,62,0.0,0.0,95,0.00,,,0.00,WeatherCatV1.21B27,2013-09-07 06:08:00,
2013-09-07 02:13:00,62.0,60.5,30.23,ENE,62,0.0,0.0,95,0.00,,,0.00,WeatherCatV1.21B27,2013-09-07 06:13:00,
2013-09-07 02:18:00,61.8,60.3,30.23,ENE,62,0.0,0.0,95,0.00,,,0.00,WeatherCatV1.21B27,2013-09-07 06:18:00,
2013-09-07 02:23:00,61.8,60.3,30.23,ENE,62,0.0,0.0,95,0.00,,,0.00,WeatherCatV1.21B27,2013-09-07 06:23:00,
2013-09-07 02:28:00,61.7,60.2,30.23,ENE,62,0.0,0.0,95,0.00,,,0.00,WeatherCatV1.21B27,2013-09-07 06:28:00,
2013-09-07 02:33:00,61.6,60.2,30.22,ENE,62,0.0,0.0,95,0.00,,,0.00,WeatherCatV1.21B27,2013-09-07 06:33:00,
2013-09-07 02:38:00,61.5,60.0,30.22,ENE,62,0.0,0.0,95,0.00,,,0.00,WeatherCatV1.21B27,2013-09-07 06:38:00,
2013-09-07 02:43:00,61.4,60.0,30.22,ENE,62,0.0,0.0,95,0.00,,,0.00,WeatherCatV1.21B27,2013-09-07 06:43:00,
2013-09-07 02:48:00,61.2,59.8,30.22,ENE,62,0.0,0.0,95,0.00,,,0.00,WeatherCatV1.21B27,2013-09-07 06:48:00,
2013-09-07 02:53:00,61.2,59.8,30.22,ENE,62,0.0,0.0,95,0.00,,,0.00,WeatherCatV1.21B27,2013-09-07 06:53:00,
2013-09-07 02:58:00,61.1,59.7,30.22,ENE,62,0.0,0.0,95,0.00,,,0.00,WeatherCatV1.21B27,2013-09-07 06:58:00,
2013-09-07 03:03:00,61.1,60.0,30.22,ENE,62,0.0,0.0,96,0.00,,,0.00,WeatherCatV1.21B27,2013-09-07 07:03:00,
2013-09-07 03:08:00,61.0,59.8,30.22,ENE,62,0.0,0.0,96,0.00,,,0.00,WeatherCatV1.21B27,2013-09-07 07:08:00,
2013-09-07 03:13:00,61.0,59.8,30.22,ENE,62,0.0,0.0,96,0.00,,,0.00,WeatherCatV1.21B27,2013-09-07 07:13:00,
2013-09-07 03:18:00,61.0,59.8,30.22,ENE,62,0.0,0.0,96,0.00,,,0.00,WeatherCatV1.21B27,2013-09-07 07:18:00,
2013-09-07 03:23:00,60.9,59.8,30.22,ENE,62,0.0,0.0,96,0.00,,,0.00,WeatherCatV1.21B27,2013-09-07 07:23:00,
2013-09-07 03:28:00,60.9,59.8,30.21,ENE,62,0.0,0.0,96,0.00,,,0.00,WeatherCatV1.21B27,2013-09-07 07:28:00,
2013-09-07 03:33:00,60.9,59.8,30.21,ENE,62,0.0,0.0,96,0.00,,,0.00,WeatherCatV1.21B27,2013-09-07 07:33:00,
2013-09-07 03:38:00,60.9,59.8,30.21,ENE,62,0.0,0.0,96,0.00,,,0.00,WeatherCatV1.21B27,2013-09-07 07:38:00,
2013-09-07 03:43:00,60.9,59.8,30.21,ENE,62,0.0,0.0,96,0.00,,,0.00,WeatherCatV1.21B27,2013-09-07 07:43:00,
2013-09-07 03:48:00,60.9,59.8,30.21,ENE,62,0.0,0.0,96,0.00,,,0.00,WeatherCatV1.21B27,2013-09-07 07:48:00,
2013-09-07 03:53:00,60.7,59.3,30.21,ENE,62,0.0,0.0,95,0.00,,,0.00,WeatherCatV1.21B27,2013-09-07 07:53:00,
2013-09-07 03:58:00,60.6,59.5,30.21,ENE,62,0.0,0.0,96,0.00,,,0.00,WeatherCatV1.21B27,2013-09-07 07:58:00,
2013-09-07 04:03:00,60.5,59.3,30.21,ENE,62,0.0,0.0,96,0.00,,,0.00,WeatherCatV1.21B27,2013-09-07 08:03:00,
2013-09-07 04:08:00,60.4,59.2,30.21,ENE,62,0.0,0.0,96,0.00,,,0.00,WeatherCatV1.21B27,2013-09-07 08:08:00,
2013-09-07 04:13:00,60.3,59.2,30.21,ENE,62,0.0,0.0,96,0.00,,,0.00,WeatherCatV1.21B27,2013-09-07 08:13:00,
2013-09-07 04:18:00,60.3,59.4,30.21,ENE,62,0.0,0.0,97,0.00,,,0.00,WeatherCatV1.21B27,2013-09-07 08:18:00,
2013-09-07 04:23:00,60.3,59.4,30.21,ENE,62,0.0,0.0,97,0.00,,,0.00,WeatherCatV1.21B27,2013-09-07 08:23:00,
2013-09-07 04:28:00,60.2,59.3,30.21,ENE,62,0.0,0.0,97,0.00,,,0.00,WeatherCatV1.21B27,2013-09-07 08:28:00,
2013-09-07 04:33:00,60.2,59.3,30.21,ENE,62,0.0,0.0,97,0.00,,,0.00,WeatherCatV1.21B27,2013-09-07 08:33:00,
2013-09-07 04:38:00,60.2,59.3,30.21,ENE,62,0.0,0.0,97,0.00,,,0.00,WeatherCatV1.21B27,2013-09-07 08:38:00,
2013-09-07 04:43:00,60.2,59.3,30.21,ENE,62,0.0,0.0,97,0.00,,,0.00,WeatherCatV1.21B27,2013-09-07 08:43:00,
2013-09-07 04:48:00,60.1,59.0,30.21,ENE,62,0.0,0.0,96,0.00,,,0.00,WeatherCatV1.21B27,2013-09-07 08:48:00,
2013-09-07 04:53:00,60.0,58.8,30.21,ENE,62,0.0,0.0,96,0.00,,,0.00,WeatherCatV1.21B27,2013-09-07 08:53:00,
2013-09-07 04:58:00,59.9,58.8,30.21,ENE,62,0.0,0.0,96,0.00,,,0.00,WeatherCatV1.21B27,2013-09-07 08:58:00,
2013-09-07 05:03:00,59.8,58.7,30.21,ENE,62,0.0,0.0,96,0.00,,,0.00,WeatherCatV1.21B27,2013-09-07 09:03:00,
2013-09-07 05:08:00,59.6,58.5,30.21,ENE,62,0.0,0.0,96,0.00,,,0.00,WeatherCatV1.21B27,2013-09-07 09:08:00,
2013-09-07 05:13:00,59.6,58.5,30.21,ENE,62,0.0,0.0,96,0.00,,,0.00,WeatherCatV1.21B27,2013-09-07 09:13:00,
2013-09-07 05:18:00,59.5,58.7,30.21,ENE,62,0.0,0.0,97,0.00,,,0.00,WeatherCatV1.21B27,2013-09-07 09:18:00,
2013-09-07 05:23:00,59.4,58.5,30.21,ENE,62,0.0,0.0,97,0.00,,,0.00,WeatherCatV1.21B27,2013-09-07 09:23:00,
2013-09-07 05:28:00,59.4,58.5,30.21,ENE,62,0.0,0.0,97,0.00,,,0.00,WeatherCatV1.21B27,2013-09-07 09:28:00,
2013-09-07 05:33:00,59.4,58.8,30.21,ENE,62,0.0,0.0,98,0.00,,,0.00,WeatherCatV1.21B27,2013-09-07 09:33:00,
2013-09-07 05:38:00,59.5,58.9,30.21,ENE,62,0.0,0.0,98,0.00,,,0.00,WeatherCatV1.21B27,2013-09-07 09:38:00,
2013-09-07 05:43:00,59.6,59.0,30.21,ENE,62,0.0,0.0,98,0.00,,,0.00,WeatherCatV1.21B27,2013-09-07 09:43:00,
2013-09-07 05:48:00,59.8,59.2,30.21,ENE,62,0.0,0.0,98,0.00,,,0.00,WeatherCatV1.21B27,2013-09-07 09:48:00,
2013-09-07 05:53:00,59.9,59.3,30.21,ENE,62,0.0,0.0,98,0.00,,,0.00,WeatherCatV1.21B27,2013-09-07 09:53:00,
2013-09-07 05:58:00,60.0,59.4,30.21,ENE,62,0.0,0.0,98,0.00,,,0.00,WeatherCatV1.21B27,2013-09-07 09:58:00,
2013-09-07 06:03:00,60.0,59.4,30.21,ENE,62,0.0,0.0,98,0.00,,,0.00,WeatherCatV1.21B27,2013-09-07 10:03:00,
2013-09-07 06:08:00,60.0,59.4,30.21,ENE,62,0.0,0.0,98,0.00,,,0.00,WeatherCatV1.21B27,2013-09-07 10:08:00,
2013-09-07 06:13:00,60.0,59.4,30.21,ENE,62,0.0,0.0,98,0.00,,,0.00,WeatherCatV1.21B27,2013-09-07 10:13:00,
2013-09-07 06:18:00,60.0,59.4,30.21,ENE,62,0.0,0.0,98,0.00,,,0.00,WeatherCatV1.21B27,2013-09-07 10:18:00,
2013-09-07 06:23:00,60.0,59.4,30.21,ENE,62,0.0,0.0,98,0.00,,,0.00,WeatherCatV1.21B27,2013-09-07 10:23:00,
2013-09-07 06:28:00,59.9,59.3,30.21,ENE,62,0.0,0.0,98,0.00,,,0.00,WeatherCatV1.21B27,2013-09-07 10:28:00,
2013-09-07 06:33:00,59.8,59.2,30.21,ENE,62,0.0,0.0,98,0.00,,,0.00,WeatherCatV1.21B27,2013-09-07 10:33:00,
2013-09-07 06:38:00,59.8,59.2,30.21,ENE,62,0.0,0.0,98,0.00,,,0.00,WeatherCatV1.21B27,2013-09-07 10:38:00,
2013-09-07 06:43:00,59.8,59.2,30.22,ENE,62,0.0,0.0,98,0.00,,,0.00,WeatherCatV1.21B27,2013-09-07 10:43:00,
2013-09-07 06:48:00,59.9,59.3,30.22,ENE,62,0.0,0.0,98,0.00,,,0.00,WeatherCatV1.21B27,2013-09-07 10:48:00,
2013-09-07 06:53:00,59.8,59.2,30.22,ENE,62,0.0,0.0,98,0.00,,,0.00,WeatherCatV1.21B27,2013-09-07 10:53:00,
2013-09-07 06:58:00,59.8,59.2,30.22,ENE,62,0.0,0.0,98,0.00,,,0.00,WeatherCatV1.21B27,2013-09-07 10:58:00,
2013-09-07 07:03:00,59.7,59.1,30.22,ENE,62,0.0,0.0,98,0.00,,,0.00,WeatherCatV1.21B27,2013-09-07 11:03:00,
2013-09-07 07:08:00,59.6,59.0,30.22,ENE,62,0.0,0.0,98,0.00,,,0.00,WeatherCatV1.21B27,2013-09-07 11:08:00,
2013-09-07 07:13:00,59.6,59.0,30.22,ENE,62,0.0,0.0,98,0.00,,,0.00,WeatherCatV1.21B27,2013-09-07 11:13:00,
2013-09-07 07:18:00,59.5,58.9,30.22,ENE,62,0.0,0.0,98,0.00,,,0.00,WeatherCatV1.21B27,2013-09-07 11:18:00,
2013-09-07 07:23:00,59.5,58.9,30.22,ENE,62,0.0,0.0,98,0.00,,,0.00,WeatherCatV1.21B27,2013-09-07 11:23:00,
2013-09-07 07:28:00,59.4,58.8,30.22,ENE,61,0.0,0.0,98,0.00,,,0.00,WeatherCatV1.21B27,2013-09-07 11:28:00,
2013-09-07 07:33:00,59.3,58.7,30.23,ENE,62,0.0,0.0,98,0.00,,,0.00,WeatherCatV1.21B27,2013-09-07 11:33:00,
2013-09-07 07:38:00,59.3,58.7,30.23,ENE,62,0.0,0.0,98,0.00,,,0.00,WeatherCatV1.21B27,2013-09-07 11:38:00,
2013-09-07 07:43:00,59.4,58.8,30.23,ENE,62,0.0,0.0,98,0.00,,,0.00,WeatherCatV1.21B27,2013-09-07 11:43:00,
2013-09-07 07:48:00,59.3,58.7,30.23,ENE,62,0.0,0.0,98,0.00,,,0.00,WeatherCatV1.21B27,2013-09-07 11:48:00,
2013-09-07 07:53:00,59.3,58.7,30.23,ENE,62,0.0,0.0,98,0.00,,,0.00,WeatherCatV1.21B27,2013-09-07 11:53:00,
2013-09-07 07:58:00,59.3,58.7,30.23,ENE,62,0.0,0.0,98,0.00,,,0.00,WeatherCatV1.21B27,2013-09-07 11:58:00,
2013-09-07 08:03:00,59.3,58.7,30.23,ENE,62,0.0,0.0,98,0.00,,,0.00,WeatherCatV1.21B27,2013-09-07 12:03:00,
2013-09-07 08:08:00,59.3,58.7,30.23,ENE,62,0.0,0.0,98,0.00,,,0.00,WeatherCatV1.21B27,2013-09-07 12:08:00,
2013-09-07 08:13:00,59.3,58.7,30.23,ENE,62,0.0,0.0,98,0.00,,,0.00,WeatherCatV1.21B27,2013-09-07 12:13:00,
2013-09-07 08:18:00,59.4,58.8,30.23,ENE,62,0.0,0.0,98,0.00,,,0.00,WeatherCatV1.21B27,2013-09-07 12:18:00,
2013-09-07 08:23:00,59.6,59.0,30.23,ENE,62,0.0,0.0,98,0.00,,,0.00,WeatherCatV1.21B27,2013-09-07 12:23:00,
2013-09-07 08:28:00,59.6,59.0,30.23,ENE,62,0.0,0.0,98,0.00,,,0.00,WeatherCatV1.21B27,2013-09-07 12:28:00,
2013-09-07 08:33:00,59.5,58.9,30.23,ENE,62,0.0,0.0,98,0.00,,,0.00,WeatherCatV1.21B27,2013-09-07 12:33:00,
2013-09-07 08:38:00,59.6,59.0,30.23,ENE,62,0.0,0.0,98,0.00,,,0.00,WeatherCatV1.21B27,2013-09-07 12:38:00,
2013-09-07 08:43:00,59.8,59.5,30.23,ENE,62,0.0,0.0,99,0.00,,,0.00,WeatherCatV1.21B27,2013-09-07 12:43:00,
2013-09-07 08:48:00,59.8,59.5,30.23,ENE,62,0.0,0.0,99,0.00,,,0.00,WeatherCatV1.21B27,2013-09-07 12:48:00,
2013-09-07 08:53:00,59.9,59.6,30.23,ENE,63,0.0,0.0,99,0.00,,,0.00,WeatherCatV1.21B27,2013-09-07 12:53:00,
2013-09-07 08:58:00,60.0,59.7,30.23,SW,217,0.0,0.0,99,0.00,,,0.00,WeatherCatV1.21B27,2013-09-07 12:58:00,
2013-09-07 09:03:00,60.1,59.8,30.23,SW,217,0.0,0.0,99,0.00,,,0.00,WeatherCatV1.21B27,2013-09-07 13:03:00,
2013-09-07 09:08:00,60.2,59.9,30.23,SW,217,0.0,0.0,99,0.00,,,0.00,WeatherCatV1.21B27,2013-09-07 13:08:00,
2013-09-07 09:13:00,60.3,59.7,30.23,SW,217,0.0,1.0,98,0.00,,,0.00,WeatherCatV1.21B27,2013-09-07 13:13:00,
2013-09-07 09:18:00,60.3,59.7,30.23,SW,217,0.0,1.0,98,0.00,,,0.00,WeatherCatV1.21B27,2013-09-07 13:18:00,
2013-09-07 09:23:00,60.3,59.7,30.23,SW,217,0.0,0.0,98,0.00,,,0.00,WeatherCatV1.21B27,2013-09-07 13:23:00,
2013-09-07 09:28:00,60.4,60.1,30.24,SW,217,0.0,0.0,99,0.00,,,0.00,WeatherCatV1.21B27,2013-09-07 13:28:00,
2013-09-07 09:33:00,60.5,60.2,30.24,SW,217,0.0,0.0,99,0.00,,,0.00,WeatherCatV1.21B27,2013-09-07 13:33:00,
2013-09-07 09:38:00,60.6,60.3,30.24,SW,217,0.0,0.0,99,0.00,,,0.00,WeatherCatV1.21B27,2013-09-07 13:38:00,
2013-09-07 09:43:00,60.7,60.4,30.23,SW,217,1.0,1.0,99,0.00,,,0.00,WeatherCatV1.21B27,2013-09-07 13:43:00,
2013-09-07 09:48:00,60.8,60.5,30.24,SW,217,0.0,0.0,99,0.00,,,0.00,WeatherCatV1.21B27,2013-09-07 13:48:00,
2013-09-07 09:53:00,61.0,60.7,30.24,SW,217,0.0,0.0,99,0.00,,,0.00,WeatherCatV1.21B27,2013-09-07 13:53:00,
2013-09-07 09:58:00,61.0,60.7,30.24,SW,219,0.0,1.0,99,0.00,,,0.00,WeatherCatV1.21B27,2013-09-07 13:58:00,
2013-09-07 10:03:00,61.1,60.8,30.24,SW,219,0.0,0.0,99,0.00,,,0.00,WeatherCatV1.21B27,2013-09-07 14:03:00,
2013-09-07 10:08:00,61.3,61.0,30.24,SW,219,0.0,0.0,99,0.00,,,0.00,WeatherCatV1.21B27,2013-09-07 14:08:00,
2013-09-07 10:13:00,61.6,61.3,30.24,SW,225,0.0,2.0,99,0.00,,,0.00,WeatherCatV1.21B27,2013-09-07 14:13:00,
2013-09-07 10:18:00,61.8,61.2,30.24,SW,225,0.0,0.0,98,0.00,,,0.00,WeatherCatV1.21B27,2013-09-07 14:18:00,
2013-09-07 10:23:00,62.3,61.7,30.24,SW,231,0.0,1.0,98,0.00,,,0.00,WeatherCatV1.21B27,2013-09-07 14:23:00,
2013-09-07 10:28:00,62.9,62.3,30.24,SW,222,0.0,0.0,98,0.00,,,0.00,WeatherCatV1.21B27,2013-09-07 14:28:00,
2013-09-07 10:33:00,63.5,62.0,30.24,WNW,282,0.0,2.0,95,0.00,,,0.00,WeatherCatV1.21B27,2013-09-07 14:33:00,
2013-09-07 10:38:00,64.2,62.4,30.24,WSW,240,0.0,1.0,94,0.00,,,0.00,WeatherCatV1.21B27,2013-09-07 14:38:00,
2013-09-07 10:43:00,64.9,62.5,30.24,WSW,243,2.0,4.0,92,0.00,,,0.00,WeatherCatV1.21B27,2013-09-07 14:43:00,
2013-09-07 10:48:00,65.5,62.8,30.24,WSW,240,0.0,2.0,91,0.00,,,0.00,WeatherCatV1.21B27,2013-09-07 14:48:00,
2013-09-07 10:53:00,66.2,62.9,30.24,WSW,248,2.0,3.0,89,0.00,,,0.00,WeatherCatV1.21B27,2013-09-07 14:53:00,
2013-09-07 10:58:00,66.9,63.5,30.24,WSW,257,0.0,2.0,89,0.00,,,0.00,WeatherCatV1.21B27,2013-09-07 14:58:00,
2013-09-07 11:03:00,67.7,63.3,30.24,WSW,255,0.0,0.0,86,0.00,,,0.00,WeatherCatV1.21B27,2013-09-07 15:03:00,
2013-09-07 11:08:00,68.6,63.9,30.24,NE,55,0.0,0.0,85,0.00,,,0.00,WeatherCatV1.21B27,2013-09-07 15:08:00,
2013-09-07 11:13:00,69.0,63.3,30.24,NE,46,3.0,3.0,82,0.00,,,0.00,WeatherCatV1.21B27,2013-09-07 15:13:00,
2013-09-07 11:18:00,69.8,64.4,30.24,NE,43,0.0,0.0,83,0.00,,,0.00,WeatherCatV1.21B27,2013-09-07 15:18:00,
2013-09-07 11:23:00,70.4,64.3,30.24,West,273,1.0,2.0,81,0.00,,,0.00,WeatherCatV1.21B27,2013-09-07 15:23:00,
2013-09-07 11:28:00,70.8,62.8,30.24,ENE,67,1.0,3.0,76,0.00,,,0.00,WeatherCatV1.21B27,2013-09-07 15:28:00,
2013-09-07 11:33:00,71.0,63.8,30.23,ENE,69,0.0,1.0,78,0.00,,,0.00,WeatherCatV1.21B27,2013-09-07 15:33:00,
2013-09-07 11:38:00,71.3,64.1,30.23,SW,232,0.0,0.0,78,0.00,,,0.00,WeatherCatV1.21B27,2013-09-07 15:38:00,
2013-09-07 11:43:00,71.5,63.5,30.23,WSW,251,3.0,3.0,76,0.00,,,0.00,WeatherCatV1.21B27,2013-09-07 15:43:00,
2013-09-07 11:48:00,71.6,63.2,30.23,NNW,332,0.0,1.0,75,0.00,,,0.00,WeatherCatV1.21B27,2013-09-07 15:48:00,
2013-09-07 11:53:00,72.0,63.6,30.23,West,273,0.0,2.0,75,0.00,,,0.00,WeatherCatV1.21B27,2013-09-07 15:53:00,
2013-09-07 11:58:00,72.4,63.6,30.23,North,5,0.0,2.0,74,0.00,,,0.00,WeatherCatV1.21B27,2013-09-07 15:58:00,
2013-09-07 12:03:00,72.7,64.3,30.23,NW,326,1.0,1.0,75,0.00,,,0.00,WeatherCatV1.21B27,2013-09-07 16:03:00,
2013-09-07 12:08:00,73.3,64.9,30.23,WSW,246,2.0,6.0,75,0.00,,,0.00,WeatherCatV1.21B27,2013-09-07 16:08:00,
2013-09-07 12:13:00,73.8,64.2,30.22,West,262,0.0,1.0,72,0.00,,,0.00,WeatherCatV1.21B27,2013-09-07 16:13:00,
2013-09-07 12:18:00,74.0,64.0,30.22,WSW,254,0.0,4.0,71,0.00,,,0.00,WeatherCatV1.21B27,2013-09-07 16:18:00,
2013-09-07 12:23:00,74.1,64.9,30.22,SW,236,4.0,4.0,73,0.00,,,0.00,WeatherCatV1.21B27,2013-09-07 16:23:00,
2013-09-07 12:28:00,73.9,64.7,30.22,ESE,112,0.0,1.0,73,0.00,,,0.00,WeatherCatV1.21B27,2013-09-07 16:28:00,
2013-09-07 12:33:00,73.9,64.7,30.21,ENE,58,0.0,1.0,73,0.00,,,0.00,WeatherCatV1.21B27,2013-09-07 16:33:00,
2013-09-07 12:38:00,73.9,64.7,30.21,WSW,249,2.0,2.0,73,0.00,,,0.00,WeatherCatV1.21B27,2013-09-07 16:38:00,
2013-09-07 12:43:00,74.0,64.4,30.21,WSW,252,0.0,1.0,72,0.00,,,0.00,WeatherCatV1.21B27,2013-09-07 16:43:00,
2013-09-07 12:48:00,74.2,65.0,30.21,SSW,195,0.0,4.0,73,0.00,,,0.00,WeatherCatV1.21B27,2013-09-07 16:48:00,
2013-09-07 12:53:00,74.3,64.7,30.21,SSW,203,0.0,1.0,72,0.00,,,0.00,WeatherCatV1.21B27,2013-09-07 16:53:00,
2013-09-07 12:58:00,74.5,65.3,30.20,SSW,200,1.0,5.0,73,0.00,,,0.00,WeatherCatV1.21B27,2013-09-07 16:58:00,
2013-09-07 13:03:00,74.9,64.8,30.20,SW,219,3.0,3.0,71,0.00,,,0.00,WeatherCatV1.21B27,2013-09-07 17:03:00,
2013-09-07 13:08:00,75.1,64.6,30.20,SSW,210,0.0,2.0,70,0.00,,,0.00,WeatherCatV1.21B27,2013-09-07 17:08:00,
2013-09-07 13:13:00,75.2,63.9,30.20,SSE,147,0.0,6.0,68,0.00,,,0.00,WeatherCatV1.21B27,2013-09-07 17:13:00,
2013-09-07 13:18:00,75.6,64.7,30.20,South,186,1.0,6.0,69,0.00,,,0.00,WeatherCatV1.21B27,2013-09-07 17:18:00,
2013-09-07 13:23:00,76.0,64.2,30.20,SSW,211,1.0,6.0,67,0.00,,,0.00,WeatherCatV1.21B27,2013-09-07 17:23:00,
2013-09-07 13:28:00,75.9,65.0,30.20,West,269,2.0,3.0,69,0.00,,,0.00,WeatherCatV1.21B27,2013-09-07 17:28:00,
2013-09-07 13:33:00,76.3,64.1,30.20,WSW,251,1.0,7.0,66,0.00,,,0.00,WeatherCatV1.21B27,2013-09-07 17:33:00,
2013-09-07 13:38:00,76.6,64.4,30.20,SW,218,1.0,4.0,66,0.00,,,0.00,WeatherCatV1.21B27,2013-09-07 17:38:00,
2013-09-07 13:43:00,76.5,65.1,30.19,South,170,3.0,3.0,68,0.00,,,0.00,WeatherCatV1.21B27,2013-09-07 17:43:00,
2013-09-07 13:48:00,76.4,64.6,30.19,NNE,20,0.0,1.0,67,0.00,,,0.00,WeatherCatV1.21B27,2013-09-07 17:48:00,
2013-09-07 13:53:00,77.0,65.6,30.19,NE,42,0.0,3.0,68,0.00,,,0.00,WeatherCatV1.21B27,2013-09-07 17:53:00,
2013-09-07 13:58:00,77.7,64.1,30.19,SW,234,8.0,8.0,63,0.00,,,0.00,WeatherCatV1.21B27,2013-09-07 17:58:00,
2013-09-07 14:03:00,77.8,64.2,30.19,SSW,209,0.0,2.0,63,0.00,,,0.00,WeatherCatV1.21B27,2013-09-07 18:03:00,
2013-09-07 14:08:00,77.8,64.2,30.18,SSW,207,3.0,5.0,63,0.00,,,0.00,WeatherCatV1.21B27,2013-09-07 18:08:00,
2013-09-07 14:13:00,77.9,63.3,30.19,SSW,207,2.0,7.0,61,0.00,,,0.00,WeatherCatV1.21B27,2013-09-07 18:13:00,
2013-09-07 14:18:00,78.2,63.6,30.18,South,178,2.0,4.0,61,0.00,,,0.00,WeatherCatV1.21B27,2013-09-07 18:18:00,
2013-09-07 14:23:00,78.0,63.4,30.18,SSW,213,3.0,5.0,61,0.00,,,0.00,WeatherCatV1.21B27,2013-09-07 18:23:00,
2013-09-07 14:28:00,77.9,62.4,30.17,South,190,3.0,3.0,59,0.00,,,0.00,WeatherCatV1.21B27,2013-09-07 18:28:00,
2013-09-07 14:33:00,78.2,63.2,30.18,WSW,240,0.0,2.0,60,0.00,,,0.00,WeatherCatV1.21B27,2013-09-07 18:33:00,
2013-09-07 14:38:00,78.6,63.0,30.17,SSE,161,1.0,5.0,59,0.00,,,0.00,WeatherCatV1.21B27,2013-09-07 18:38:00,
2013-09-07 14:43:00,78.7,63.6,30.17,South,175,1.0,3.0,60,0.00,,,0.00,WeatherCatV1.21B27,2013-09-07 18:43:00,
2013-09-07 14:53:00,79.1,64.0,30.17,SW,218,3.0,5.0,60,0.00,,,0.00,WeatherCatV1.21B27,2013-09-07 18:53:00,
2013-09-07 14:58:00,79.2,63.6,30.17,SSW,210,4.0,4.0,59,0.00,,,0.00,WeatherCatV1.21B27,2013-09-07 18:58:00,
2013-09-07 15:03:00,79.5,63.4,30.17,SSW,198,2.0,6.0,58,0.00,,,0.00,WeatherCatV1.21B27,2013-09-07 19:03:00,
2013-09-07 15:08:00,79.6,63.5,30.17,SSW,197,0.0,5.0,58,0.00,,,0.00,WeatherCatV1.21B27,2013-09-07 19:08:00,
2013-09-07 15:13:00,79.6,64.0,30.17,SE,138,1.0,2.0,59,0.00,,,0.00,WeatherCatV1.21B27,2013-09-07 19:13:00,
2013-09-07 15:18:00,79.8,64.2,30.16,SSW,198,2.0,4.0,59,0.00,,,0.00,WeatherCatV1.21B27,2013-09-07 19:18:00,
2013-09-07 15:23:00,79.9,63.3,30.16,South,187,2.0,5.0,57,0.00,,,0.00,WeatherCatV1.21B27,2013-09-07 19:23:00,
2013-09-07 15:28:00,79.9,62.8,30.16,SSW,202,0.0,1.0,56,0.00,,,0.00,WeatherCatV1.21B27,2013-09-07 19:28:00,
2013-09-07 15:33:00,80.0,64.8,30.16,South,171,0.0,1.0,60,0.00,,,0.00,WeatherCatV1.21B27,2013-09-07 19:33:00,
2013-09-07 15:38:00,80.1,61.4,30.16,SSW,197,1.0,2.0,53,0.00,,,0.00,WeatherCatV1.21B27,2013-09-07 19:38:00,
2013-09-07 15:43:00,80.1,63.0,30.16,SSE,165,1.0,3.0,56,0.00,,,0.00,WeatherCatV1.21B27,2013-09-07 19:43:00,
2013-09-07 15:48:00,80.6,63.4,30.16,South,178,1.0,3.0,56,0.00,,,0.00,WeatherCatV1.21B27,2013-09-07 19:48:00,
2013-09-07 15:53:00,80.6,62.4,30.16,ENE,66,2.0,3.0,54,0.00,,,0.00,WeatherCatV1.21B27,2013-09-07 19:53:00,
2013-09-07 15:58:00,80.6,63.9,30.16,NNW,347,0.0,1.0,57,0.00,,,0.00,WeatherCatV1.21B27,2013-09-07 19:58:00,
2013-09-07 16:03:00,80.9,62.7,30.16,East,88,1.0,3.0,54,0.00,,,0.00,WeatherCatV1.21B27,2013-09-07 20:03:00,
2013-09-07 16:08:00,81.0,63.3,30.15,West,269,0.0,8.0,55,0.00,,,0.00,WeatherCatV1.21B27,2013-09-07 20:08:00,
2013-09-07 16:13:00,81.0,62.8,30.15,East,79,0.0,1.0,54,0.00,,,0.00,WeatherCatV1.21B27,2013-09-07 20:13:00,
2013-09-07 16:18:00,81.0,62.8,30.15,WNW,284,0.0,2.0,54,0.00,,,0.00,WeatherCatV1.21B27,2013-09-07 20:18:00,
2013-09-07 16:23:00,81.1,62.3,30.15,SSW,194,0.0,2.0,53,0.00,,,0.00,WeatherCatV1.21B27,2013-09-07 20:23:00,
2013-09-07 16:28:00,80.9,64.2,30.15,ESE,110,5.0,5.0,57,0.00,,,0.00,WeatherCatV1.21B27,2013-09-07 20:28:00,
2013-09-07 16:33:00,80.8,62.6,30.15,WSW,245,1.0,3.0,54,0.00,,,0.00,WeatherCatV1.21B27,2013-09-07 20:33:00,
2013-09-07 16:38:00,81.3,63.0,30.14,SW,217,2.0,7.0,54,0.00,,,0.00,WeatherCatV1.21B27,2013-09-07 20:38:00,
2013-09-07 16:43:00,81.3,62.5,30.15,West,271,1.0,1.0,53,0.00,,,0.00,WeatherCatV1.21B27,2013-09-07 20:43:00,
2013-09-07 16:48:00,81.4,63.7,30.15,SSW,199,2.0,2.0,55,0.00,,,0.00,WeatherCatV1.21B27,2013-09-07 20:48:00,
2013-09-07 16:53:00,80.8,63.1,30.15,SSE,165,0.0,0.0,55,0.00,,,0.00,WeatherCatV1.21B27,2013-09-07 20:53:00,
2013-09-07 17:03:00,80.5,63.8,30.14,SW,220,0.0,1.0,57,0.00,,,0.00,WeatherCatV1.21B27,2013-09-07 21:03:00,
2013-09-07 17:08:00,80.4,63.8,30.14,SSE,150,0.0,1.0,57,0.00,,,0.00,WeatherCatV1.21B27,2013-09-07 21:08:00,
2013-09-07 17:13:00,80.4,64.7,30.14,WSW,248,0.0,0.0,59,0.00,,,0.00,WeatherCatV1.21B27,2013-09-07 21:13:00,
2013-09-07 17:18:00,80.1,63.0,30.14,ESE,120,1.0,3.0,56,0.00,,,0.00,WeatherCatV1.21B27,2013-09-07 21:18:00,
2013-09-07 17:23:00,79.7,64.6,30.14,SE,145,0.0,3.0,60,0.00,,,0.00,WeatherCatV1.21B27,2013-09-07 21:23:00,
2013-09-07 17:28:00,79.3,64.2,30.14,SE,136,0.0,1.0,60,0.00,,,0.00,WeatherCatV1.21B27,2013-09-07 21:28:00,
2013-09-07 17:33:00,78.9,64.8,30.14,SE,136,0.0,0.0,62,0.00,,,0.00,WeatherCatV1.21B27,2013-09-07 21:33:00,
2013-09-07 17:38:00,78.4,62.9,30.14,SSE,154,0.0,1.0,59,0.00,,,0.00,WeatherCatV1.21B27,2013-09-07 21:38:00,
2013-09-07 17:43:00,78.2,64.1,30.14,SSE,154,0.0,0.0,62,0.00,,,0.00,WeatherCatV1.21B27,2013-09-07 21:43:00,
2013-09-07 17:48:00,77.9,64.7,30.14,SSE,153,0.0,1.0,64,0.00,,,0.00,WeatherCatV1.21B27,2013-09-07 21:48:00,
2013-09-07 17:53:00,77.9,65.2,30.14,SSE,153,0.0,0.0,65,0.00,,,0.00,WeatherCatV1.21B27,2013-09-07 21:53:00,
2013-09-07 17:58:00,77.7,65.0,30.14,South,180,0.0,2.0,65,0.00,,,0.00,WeatherCatV1.21B27,2013-09-07 21:58:00,
2013-09-07 18:03:00,77.4,63.3,30.14,SSW,202,2.0,3.0,62,0.00,,,0.00,WeatherCatV1.21B27,2013-09-07 22:03:00,
2013-09-07 18:08:00,77.1,63.5,30.14,SSE,155,0.0,1.0,63,0.00,,,0.00,WeatherCatV1.21B27,2013-09-07 22:08:00,
2013-09-07 18:13:00,76.8,64.1,30.14,SSE,155,0.0,0.0,65,0.00,,,0.00,WeatherCatV1.21B27,2013-09-07 22:13:00,
2013-09-07 18:18:00,76.5,64.7,30.14,SSE,152,0.0,0.0,67,0.00,,,0.00,WeatherCatV1.21B27,2013-09-07 22:18:00,
2013-09-07 18:23:00,76.3,63.7,30.14,SSW,200,0.0,2.0,65,0.00,,,0.00,WeatherCatV1.21B27,2013-09-07 22:23:00,
2013-09-07 18:28:00,76.0,64.2,30.13,East,98,0.0,0.0,67,0.00,,,0.00,WeatherCatV1.21B27,2013-09-07 22:28:00,
2013-09-07 18:33:00,75.8,63.6,30.13,East,98,0.0,1.0,66,0.00,,,0.00,WeatherCatV1.21B27,2013-09-07 22:33:00,
2013-09-07 18:38:00,75.5,64.6,30.13,ESE,102,0.0,0.0,69,0.00,,,0.00,WeatherCatV1.21B27,2013-09-07 22:38:00,
2013-09-07 18:43:00,75.3,64.8,30.13,ESE,102,0.0,1.0,70,0.00,,,0.00,WeatherCatV1.21B27,2013-09-07 22:43:00,
2013-09-07 18:48:00,74.9,63.6,30.13,East,90,0.0,0.0,68,0.00,,,0.00,WeatherCatV1.21B27,2013-09-07 22:48:00,
2013-09-07 18:53:00,74.6,64.6,30.13,East,90,0.0,0.0,71,0.00,,,0.00,WeatherCatV1.21B27,2013-09-07 22:53:00,
2013-09-07 18:58:00,74.3,64.3,30.14,East,90,0.0,0.0,71,0.00,,,0.00,WeatherCatV1.21B27,2013-09-07 22:58:00,
2013-09-07 19:03:00,74.1,64.1,30.13,East,90,0.0,0.0,71,0.00,,,0.00,WeatherCatV1.21B27,2013-09-07 23:03:00,
2013-09-07 19:08:00,73.8,64.6,30.13,East,90,0.0,0.0,73,0.00,,,0.00,WeatherCatV1.21B27,2013-09-07 23:08:00,
2013-09-07 19:13:00,73.5,64.3,30.13,East,90,0.0,1.0,73,0.00,,,0.00,WeatherCatV1.21B27,2013-09-07 23:13:00,
2013-09-07 19:18:00,73.2,64.4,30.13,East,90,0.0,0.0,74,0.00,,,0.00,WeatherCatV1.21B27,2013-09-07 23:18:00,
2013-09-07 19:23:00,72.8,64.8,30.14,East,90,0.0,0.0,76,0.00,,,0.00,WeatherCatV1.21B27,2013-09-07 23:23:00,
2013-09-07 19:28:00,72.4,64.0,30.14,East,90,0.0,1.0,75,0.00,,,0.00,WeatherCatV1.21B27,2013-09-07 23:28:00,
2013-09-07 19:33:00,71.9,63.9,30.14,East,90,0.0,1.0,76,0.00,,,0.00,WeatherCatV1.21B27,2013-09-07 23:33:00,
2013-09-07 19:38:00,71.4,63.8,30.14,East,90,0.0,1.0,77,0.00,,,0.00,WeatherCatV1.21B27,2013-09-07 23:38:00,
2013-09-07 19:43:00,70.9,64.1,30.14,East,90,1.0,1.0,79,0.00,,,0.00,WeatherCatV1.21B27,2013-09-07 23:43:00,
2013-09-07 19:48:00,70.4,64.3,30.14,East,90,0.0,1.0,81,0.00,,,0.00,WeatherCatV1.21B27,2013-09-07 23:48:00,
2013-09-07 19:53:00,70.1,63.6,30.14,East,90,0.0,1.0,80,0.00,,,0.00,WeatherCatV1.21B27,2013-09-07 23:53:00,
2013-09-07 19:58:00,69.8,63.3,30.14,East,90,0.0,2.0,80,0.00,,,0.00,WeatherCatV1.21B27,2013-09-07 23:58:00,
2013-09-07 20:03:00,69.6,63.5,30.14,ENE,78,0.0,2.0,81,0.00,,,0.00,WeatherCatV1.21B27,2013-09-08 00:03:00,
2013-09-07 20:08:00,69.4,63.7,30.14,ENE,78,0.0,1.0,82,0.00,,,0.00,WeatherCatV1.21B27,2013-09-08 00:08:00,
2013-09-07 20:13:00,69.4,64.0,30.14,ENE,78,0.0,0.0,83,0.00,,,0.00,WeatherCatV1.21B27,2013-09-08 00:13:00,
2013-09-07 20:18:00,69.5,63.8,30.14,ENE,78,0.0,0.0,82,0.00,,,0.00,WeatherCatV1.21B27,2013-09-08 00:18:00,
2013-09-07 20:23:00,69.4,63.7,30.14,ENE,78,0.0,1.0,82,0.00,,,0.00,WeatherCatV1.21B27,2013-09-08 00:23:00,
2013-09-07 20:28:00,69.3,63.2,30.14,ENE,76,1.0,2.0,81,0.00,,,0.00,WeatherCatV1.21B27,2013-09-08 00:28:00,
2013-09-07 20:33:00,69.0,62.9,30.14,NE,45,2.0,2.0,81,0.00,,,0.00,WeatherCatV1.21B27,2013-09-08 00:33:00,
2013-09-07 20:38:00,68.7,63.0,30.14,NE,45,1.0,2.0,82,0.00,,,0.00,WeatherCatV1.21B27,2013-09-08 00:38:00,
2013-09-07 20:43:00,68.5,62.8,30.14,NE,45,0.0,0.0,82,0.00,,,0.00,WeatherCatV1.21B27,2013-09-08 00:43:00,
2013-09-07 20:48:00,68.4,62.7,30.14,NE,45,0.0,1.0,82,0.00,,,0.00,WeatherCatV1.21B27,2013-09-08 00:48:00,
2013-09-07 20:53:00,68.4,62.7,30.14,NE,45,1.0,2.0,82,0.00,,,0.00,WeatherCatV1.21B27,2013-09-08 00:53:00,
2013-09-07 20:58:00,68.1,62.7,30.14,NE,45,0.0,1.0,83,0.00,,,0.00,WeatherCatV1.21B27,2013-09-08 00:58:00,
2013-09-07 21:03:00,68.0,63.0,30.14,NE,44,1.0,1.0,84,0.00,,,0.00,WeatherCatV1.21B27,2013-09-08 01:03:00,
2013-09-07 21:08:00,67.9,62.5,30.14,NE,44,0.0,1.0,83,0.00,,,0.00,WeatherCatV1.21B27,2013-09-08 01:08:00,
2013-09-07 21:13:00,67.8,63.1,30.14,NE,44,0.0,1.0,85,0.00,,,0.00,WeatherCatV1.21B27,2013-09-08 01:13:00,
2013-09-07 21:18:00,67.7,62.7,30.15,NE,44,0.0,3.0,84,0.00,,,0.00,WeatherCatV1.21B27,2013-09-08 01:18:00,
2013-09-07 21:23:00,67.7,62.7,30.15,NE,44,0.0,1.0,84,0.00,,,0.00,WeatherCatV1.21B27,2013-09-08 01:23:00,
2013-09-07 21:28:00,67.7,62.7,30.15,NE,44,0.0,1.0,84,0.00,,,0.00,WeatherCatV1.21B27,2013-09-08 01:28:00,
2013-09-07 21:33:00,67.6,62.6,30.15,NE,44,0.0,1.0,84,0.00,,,0.00,WeatherCatV1.21B27,2013-09-08 01:33:00,
2013-09-07 21:38:00,67.6,62.9,30.15,NE,44,0.0,1.0,85,0.00,,,0.00,WeatherCatV1.21B27,2013-09-08 01:38:00,
2013-09-07 21:43:00,67.6,62.9,30.15,NE,44,1.0,1.0,85,0.00,,,0.00,WeatherCatV1.21B27,2013-09-08 01:43:00,
2013-09-07 21:48:00,67.4,62.4,30.15,NE,44,0.0,1.0,84,0.00,,,0.00,WeatherCatV1.21B27,2013-09-08 01:48:00,
2013-09-07 21:53:00,67.3,62.6,30.15,NE,44,0.0,0.0,85,0.00,,,0.00,WeatherCatV1.21B27,2013-09-08 01:53:00,
2013-09-07 21:58:00,67.2,62.5,30.15,NE,44,0.0,1.0,85,0.00,,,0.00,WeatherCatV1.21B27,2013-09-08 01:58:00,
2013-09-07 22:03:00,67.0,62.7,30.15,NE,44,0.0,0.0,86,0.00,,,0.00,WeatherCatV1.21B27,2013-09-08 02:03:00,
2013-09-07 22:08:00,66.9,62.2,30.15,NE,44,0.0,0.0,85,0.00,,,0.00,WeatherCatV1.21B27,2013-09-08 02:08:00,
2013-09-07 22:13:00,66.8,62.1,30.15,NE,44,0.0,1.0,85,0.00,,,0.00,WeatherCatV1.21B27,2013-09-08 02:13:00,
2013-09-07 22:18:00,66.7,62.4,30.15,NE,44,0.0,0.0,86,0.00,,,0.00,WeatherCatV1.21B27,2013-09-08 02:18:00,
2013-09-07 22:23:00,66.5,62.2,30.15,NE,44,0.0,1.0,86,0.00,,,0.00,WeatherCatV1.21B27,2013-09-08 02:23:00,
2013-09-07 22:28:00,66.5,62.8,30.15,NE,44,0.0,0.0,88,0.00,,,0.00,WeatherCatV1.21B27,2013-09-08 02:28:00,
2013-09-07 22:33:00,66.3,62.6,30.15,NE,44,0.0,0.0,88,0.00,,,0.00,WeatherCatV1.21B27,2013-09-08 02:33:00,
2013-09-07 22:38:00,66.0,62.7,30.15,NE,44,0.0,0.0,89,0.00,,,0.00,WeatherCatV1.21B27,2013-09-08 02:38:00,
2013-09-07 22:43:00,65.7,62.4,30.15,NE,44,0.0,0.0,89,0.00,,,0.00,WeatherCatV1.21B27,2013-09-08 02:43:00,
2013-09-07 22:48:00,65.5,62.5,30.15,NE,44,0.0,0.0,90,0.00,,,0.00,WeatherCatV1.21B27,2013-09-08 02:48:00,
2013-09-07 22:53:00,65.2,62.2,30.15,NE,44,0.0,0.0,90,0.00,,,0.00,WeatherCatV1.21B27,2013-09-08 02:53:00,
2013-09-07 22:58:00,65.1,62.1,30.14,NE,44,0.0,0.0,90,0.00,,,0.00,WeatherCatV1.21B27,2013-09-08 02:58:00,
2013-09-07 23:03:00,64.8,62.1,30.14,NE,44,0.0,0.0,91,0.00,,,0.00,WeatherCatV1.21B27,2013-09-08 03:03:00,
2013-09-07 23:08:00,64.7,61.7,30.14,NE,44,0.0,0.0,90,0.00,,,0.00,WeatherCatV1.21B27,2013-09-08 03:08:00,
2013-09-07 23:13:00,64.5,61.8,30.14,NE,44,0.0,0.0,91,0.00,,,0.00,WeatherCatV1.21B27,2013-09-08 03:13:00,
2013-09-07 23:18:00,64.4,62.0,30.14,NE,44,0.0,0.0,92,0.00,,,0.00,WeatherCatV1.21B27,2013-09-08 03:18:00,
2013-09-07 23:23:00,64.3,61.9,30.14,NE,44,0.0,0.0,92,0.00,,,0.00,WeatherCatV1.21B27,2013-09-08 03:23:00,
2013-09-07 23:28:00,64.1,61.7,30.14,NE,44,0.0,0.0,92,0.00,,,0.00,WeatherCatV1.21B27,2013-09-08 03:28:00,
2013-09-07 23:33:00,64.0,61.6,30.14,NE,44,0.0,0.0,92,0.00,,,0.00,WeatherCatV1.21B27,2013-09-08 03:33:00,
2013-09-07 23:38:00,63.9,61.5,30.14,NE,44,0.0,0.0,92,0.00,,,0.00,WeatherCatV1.21B27,2013-09-08 03:38:00,
2013-09-07 23:43:00,63.7,61.6,30.14,NE,44,0.0,0.0,93,0.00,,,0.00,WeatherCatV1.21B27,2013-09-08 03:43:00,
2013-09-07 23:48:00,63.6,61.5,30.14,NE,44,0.0,0.0,93,0.00,,,0.00,WeatherCatV1.21B27,2013-09-08 03:48:00,
2013-09-07 23:53:00,63.5,61.4,30.14,NE,44,0.0,0.0,93,0.00,,,0.00,WeatherCatV1.21B27,2013-09-08 03:53:00,
2013-09-07 23:58:00,63.5,61.7,30.14,NE,44,0.0,0.0,94,0.00,,,0.00,WeatherCatV1.21B27,2013-09-08 03:58:00,